STARLINK-1076 (44959 NORAD) Tracking and Keplerian Element Data

This shows tracking and keplerian element data for the satellite.

Feedback or suggestion? Click here.




ElementValue
Catalog44959
NameSTARLINK-1076
Epoch Orbit721
Epoch Day52.78386416
Epoch Year2020
RAAN169.5313
Inclination52.9965
Eccentricity0.0002117
Argument of Perigee27.6678
Mean Anonmoly332.4451
Mean Motion15.73216133
Decay Rate0.00011867
L11 44959U 20001AX 20052.78386416 .00011867 00000-0 88774-4 0 9997
L22 44959 52.9965 169.5313 0002117 27.6678 332.4451 15.73216133 7218

Live tracking and technical data element details for STARLINK-1076 (NORAD 44959). STARLINK-1076 can be tracked NOW for your location showing map with azimuth and elevation plus other details from your city location.

Track the satellite on the map from your city or location and see movement details for azimuth, elevation, latitude, longitude, range, height, and movement on the map or in text.







IsCatalogInMostPopularTable: catalog: 44959, numindb: 16
Update: records affected: 1



GetName: 44959 STARLINK-1076

Hit Count: updated at: Mon, 24 Feb 2020 19:18:28 GMT